Location: East Horndon
(51.5667°N, 0.3500°E)
Time: 00:03:06
(UTC+00:00)

ARGOS - Pass Details

Date: 08 November 2025
Orbit: 819 x 832 km, 98.5° (Epoch: 04 December)

Event Time Altitude Azimuth Distance (km) Brightness Sun altitude
Rises 05:47:23 0° 7° (N) 3,389 6.3 -12.2°
Reaches altitude 10° 05:50:17 10° 352° (N) 2,452 5.4 -11.8°
Maximum altitude 05:54:11 21° 305° (NW) 1,808 4.4 -11.2°
Enters shadow 05:57:44 11° 262° (W) 2,345 4.9 -10.6°
